Presure
215 157 182 161 241 250 437 512 500 491 482 470 466 464 467 466 69 459 455 453 454 454 455 458 467 474 482
237 244 249 356 510 536 528 523 517 512 497 470 447 435 432 418 76 412 489 498 511 504 493 477 472 471 463
334 347 515 525 529 548 547 546 592 575 560 542 538 447 415 456 543 535 537 543 543 475 452 431 420 493 517
536 528 506 531 529 533 551 543 544 530 518 494 495 503 495 458 404 373 370 382 389 394 390 393 464 505 419
510 512 528 507 481 473 476 466 456 453 475 459 423 371 363 365 361 353 353 354 359 363 369 382 390 402 440
507 481 459 451 440 430 432 438 394 450 359 342 350 348 342 340 347 348 350 354 356 364 372 375 386 496 512
461 441 438 421 413 369 354 345 340 336 329 338 357 351 358 363 363 358 352 351 357 363 370 459 452 470 497
429 423 432 343 331 325 321 333 354 356 348 345 352 354 360 356 353 362 349 350 354 366 362 443 464 466 475
384 347 333 332 320 330 338 333 335 335 331 340 341 339 355 349 358 349 344 350 358 352 356 499 502 523 518
353 365 330 317 327 324 316 319 320 324 336 335 336 353 355 374 358 337 347 349 349 361 366 436 461 479 513
350 323 315 325 328 317 308 304 309 325 323 336 348 368 355 357 343 335 347 350 351 367 360 419 451 465 489
307 321 316 323 318 308 310 308 319 306 334 331 362 366 415 362 433 332 345 353 354 365 364 376 443 459 487
318 307 317 305 297 298 301 303 297 293 344 333 363 363 468 461 416 326 344 355 356 362 391 365 438 466 497
298 313 302 299 291 288 294 300 290 285 342 339 364 365 383 447 397 325 331 348 355 357 385 362 407 473 461
313 308 300 293 289 290 287 289 277 279 318 341 361 360 364 371 405 327 327 336 335 357 374 398 368 445 452
311 301 302 296 290 289 287 286 280 283 294 325 354 367 385 356 385 348 326 327 342 358 362 387 370 375 424
294 311 301 300 294 286 289 282 277 292 298 311 329 377 364 361 349 362 328 348 342 354 357 375 384 365 368
Wind_Speed
98 67 99 97 121 127 107 97 94 89 87 83 80 77 76 75 34 73 73 73 72 73 74 75 76 77 79
115 121 126 139 96 89 87 87 88 87 81 78 79 80 76 74 50 73 68 68 67 67 67 67 68 71 75
140 139 92 85 81 71 68 69 63 64 60 60 60 70 71 64 51 51 51 51 53 58 60 64 66 64 67
85 81 81 72 67 63 53 49 47 44 41 46 48 47 49 45 46 49 50 50 49 51 52 56 55 58 66
75 70 59 52 45 38 33 27 30 36 37 40 37 42 47 44 42 47 49 49 49 49 50 51 53 56 57
62 56 46 42 36 33 30 30 26 37 27 42 38 41 42 44 44 43 45 46 47 47 47 48 50 35 37
52 45 36 34 31 32 33 31 32 31 36 42 35 38 38 38 38 38 40 41 42 42 42 30 37 33 36
40 35 28 36 36 35 36 35 31 24 24 34 33 35 35 32 34 34 34 36 38 34 36 34 31 34 37
33 32 33 32 33 31 29 29 32 29 31 31 30 32 32 28 29 29 29 32 30 30 34 26 30 33 41
31 20 27 30 27 27 30 33 32 34 31 31 32 29 32 22 22 25 26 26 26 27 26 25 25 27 26
20 29 31 28 25 26 28 32 35 32 32 33 33 30 25 19 19 23 21 22 22 21 21 22 21 26 30
30 27 28 24 22 24 26 28 28 32 29 30 29 25 19 18 14 17 16 16 16 18 17 21 21 23 30
25 27 22 24 26 24 24 25 29 32 31 28 28 25 22 18 11 14 15 14 14 17 19 18 20 17 21
27 22 23 23 25 26 27 26 28 30 33 32 30 25 24 22 14 12 13 14 15 16 18 17 20 11 11
22 21 21 22 23 24 24 24 28 28 34 34 30 25 21 20 21 10 11 14 16 16 19 20 19 22 22
21 23 22 21 22 21 21 24 24 27 27 38 33 25 23 15 18 10 9 14 16 14 18 21 18 22 29
24 23 22 22 21 22 20 17 20 24 24 30 37 21 20 13 11 15 10 14 14 14 20 21 21 21 24
Wind_Direction
293 287 290 291 290 288 291 293 289 285 284 284 284 282 281 281 274 280 277 275 272 268 266 264 260 256 254
298 296 296 299 296 294 292 289 287 286 285 282 280 279 281 283 273 282 278 276 273 270 267 264 261 257 252
304 304 304 304 302 298 295 291 292 292 291 288 286 282 283 284 284 285 283 279 276 269 262 258 255 256 253
309 309 307 307 307 307 306 303 300 299 293 284 284 287 289 286 282 283 280 277 275 271 267 263 259 253 254
310 311 313 318 320 321 321 312 303 293 288 289 294 283 283 288 281 277 279 279 275 272 270 267 262 256 253
315 320 324 324 325 324 319 317 302 299 298 283 291 289 288 285 283 280 277 277 276 276 274 271 266 263 260
318 323 328 323 326 319 317 313 310 311 302 293 300 293 290 292 290 283 281 281 280 279 277 272 267 274 274
323 326 330 318 319 318 315 317 322 322 307 301 312 308 300 298 293 289 287 284 280 281 286 291 282 279 274
321 313 314 318 320 324 329 329 326 329 321 312 312 305 303 302 295 290 289 284 288 290 290 305 293 284 262
320 327 318 318 326 329 327 326 327 327 325 319 317 317 311 313 294 289 287 292 294 292 296 313 302 294 290
323 321 323 333 332 329 329 326 328 329 326 327 327 324 318 315 293 294 299 298 303 310 318 327 320 306 299
319 325 330 334 333 327 331 332 330 330 328 335 336 330 340 320 322 302 299 300 318 326 332 341 338 317 306
324 327 326 332 337 336 337 338 334 338 349 344 350 350 26 36 14 320 317 327 337 349 358 2 3 332 314
319 322 326 329 333 336 341 342 341 343 0 357 357 358 11 56 39 330 339 350 1 10 16 28 28 34 77
313 313 317 322 326 334 338 340 344 347 5 3 1 3 15 26 56 346 357 12 22 25 34 44 53 67 105
312 314 310 313 318 326 332 337 340 340 349 10 2 6 22 19 52 40 26 31 24 38 60 63 74 81 99
320 307 307 306 309 317 322 330 337 337 346 11 6 14 30 40 36 57 55 48 38 50 73 77 90 101 107